GW3733 Weather Reports


time (UTC)temp
F
wind
direction
speed
knots
gust
knots
rain 1hr
in
rain 24hr
in
rain mn
in
humidity
%
barometer
mb
20260510204917 66 0 0.9 0.9 0.00 0.02 0.02 75 1010.3
20260510204414 67 324 1.7 1.7 0.00 0.02 0.02 75 1010.3
20260510203911 67 354 0.9 1.7 0.00 0.02 0.02 74 1010.3
20260510203408 68 356 0.0 0.9 0.00 0.02 0.02 74 1010.3
20260510202903 69 353 1.7 1.7 0.00 0.02 0.02 75 1010.3
20260510202359 68 331 1.7 1.7 0.00 0.02 0.02 75 1010.1
20260510201855 68 335 1.7 1.7 0.00 0.02 0.02 74 1010.3
20260510201353 69 7 1.7 1.7 0.00 0.02 0.02 74 1010.1
20260510200849 67 5 0.0 0.0 0.00 0.02 0.02 78 1010.2
20260510200348 67 352 1.7 1.7 0.00 0.02 0.02 77 1010.2
20260510195842 67 5 0.9 0.9 0.00 0.02 0.02 80 1010.4
20260510195340 67 358 0.0 0.0 0.00 0.02 0.02 75 1010.0
20260510194834 68 3 0.0 0.9 0.00 0.02 0.02 74 1009.8
20260510194331 68 2 0.0 0.0 0.00 0.02 0.02 75 1009.7
20260510193826 68 354 0.0 0.0 0.00 0.02 0.02 74 1009.4
20260510193321 68 356 0.0 0.0 0.00 0.02 0.02 72 1009.5
20260510192818 68 352 0.0 0.9 0.00 0.02 0.02 74 1009.5
20260510192313 69 51 0.9 0.9 0.00 0.02 0.02 73 1009.4
20260510191809 68 353 0.0 0.0 0.00 0.02 0.02 76 1009.5
20260510191305 68 2 0.9 0.9 0.00 0.02 0.02 78 1009.6
20260510190804 68 329 0.9 0.9 0.00 0.02 0.02 74 1009.4
20260510190300 68 31 1.7 1.7 0.00 0.02 0.02 76 1009.7
20260510185756 67 31 0.0 0.0 0.00 0.02 0.02 79 1009.6
20260510185255 66 70 0.0 0.0 0.00 0.02 0.02 86 1009.9
20260510184752 64 358 0.0 0.0 0.00 0.02 0.02 88 1010.1
20260510184249 64 355 0.0 0.0 0.00 0.02 0.02 87 1010.0
20260510183748 64 0 0.0 0.0 0.05 0.02 0.02 86 1010.1
20260510183243 64 356 0.0 0.0 0.05 0.02 0.02 86 1010.2
20260510182740 64 314 0.9 0.9 0.00 0.01 0.01 85 1010.3
20260510182236 64 355 0.0 0.0 0.07 0.01 0.01 81 1010.2
20260510181733 66 283 2.6 3.5 0.07 0.01 0.01 75 1010.4
20260510181231 68 6 1.7 2.6 0.00 0.00 0.00 68 1010.3
20260510180726 69 14 0.0 0.9 0.00 0.00 0.00 69 1010.0
20260510180224 70 8 0.9 0.9 0.00 0.00 0.00 69 1009.8
20260510175720 72 349 0.0 0.0 0.00 0.00 0.00 66 1009.4
20260510175216 72 5 0.0 0.0 0.00 0.00 0.00 58 1009.6
20260510174713 72 355 0.0 0.0 0.00 0.00 0.00 54 1009.5
20260510174211 72 345 0.0 0.0 0.00 0.00 0.00 54 1009.3
20260510173706 72 350 0.0 0.0 0.00 0.00 0.00 55 1009.3
20260510173202 72 0 0.0 0.9 0.00 0.00 0.00 53 1009.2
20260510172657 73 4 0.0 0.0 0.00 0.00 0.00 52 1009.1
20260510172154 73 357 0.0 0.0 0.00 0.00 0.00 51 1009.2
20260510171651 73 335 0.9 1.7 0.00 0.00 0.00 51 1009.3
20260510171148 74 26 0.9 0.9 0.00 0.00 0.00 51 1009.2
20260510170645 75 348 0.9 1.7 0.00 0.00 0.00 51 1009.2
20260510170141 75 323 1.7 2.6 0.00 0.00 0.00 51 1009.3
20260510165637 75 308 1.7 2.6 0.00 0.00 0.00 50 1009.2
20260510165133 75 29 2.6 2.6 0.00 0.00 0.00 48 1009.2
20260510164631 75 331 1.7 1.7 0.00 0.00 0.00 51 1009.5
20260510164127 75 43 1.7 2.6 0.00 0.00 0.00 50 1009.4
20260510163623 75 41 0.9 1.7 0.00 0.00 0.00 52 1009.4
20260510163119 75 30 0.0 0.9 0.00 0.00 0.00 56 1009.6
20260510162614 73 313 0.9 0.9 0.00 0.00 0.00 54 1009.7
20260510162110 73 348 0.9 1.7 0.00 0.00 0.00 59 1009.7
20260510161606 71 271 0.9 1.7 0.00 0.00 0.00 58 1009.9
20260510161103 71 309 0.9 0.9 0.00 0.00 0.00 59 1009.9
20260510160600 71 341 0.9 0.9 0.00 0.00 0.00 61 1009.8
20260510160059 71 10 0.9 0.9 0.00 0.00 0.00 57 1009.9
20260510155557 71 87 1.7 2.6 0.00 0.00 0.00 57 1009.8
20260510155053 70 16 0.0 0.0 0.00 0.00 0.00 59 1010.0
20260510154548 70 197 0.9 1.7 0.00 0.00 0.00 60 1009.7
20260510154044 70 304 0.0 0.9 0.00 0.00 0.00 60 1009.9
20260510153539 69 348 0.0 0.0 0.00 0.00 0.00 64 1009.9
20260510153037 69 353 0.9 0.9 0.00 0.00 0.00 62 1010.0
20260510152533 69 345 0.0 0.9 0.00 0.00 0.00 62 1009.9
20260510152029 69 319 0.9 0.9 0.00 0.00 0.00 64 1009.7
20260510151521 68 342 0.0 0.9 0.00 0.00 0.00 62 1009.6
20260510151018 69 349 0.9 0.9 0.00 0.00 0.00 61 1009.6
20260510150508 69 339 0.0 0.0 0.00 0.00 0.00 62 1009.6
20260510150004 69 331 0.9 1.7 0.00 0.00 0.00 63 1009.8
20260510145501 69 349 0.0 0.0 0.00 0.00 0.00 62 1009.5
20260510144956 69 13 0.0 0.0 0.00 0.00 0.00 62 1009.7
20260510144453 69 348 0.0 0.9 0.00 0.00 0.00 63 1009.6
20260510143948 68 346 0.0 0.0 0.00 0.00 0.00 63 1009.4
20260510143439 68 350 0.9 0.9 0.00 0.00 0.00 65 1009.6
20260510142936 68 355 0.0 0.0 0.00 0.00 0.00 65 1009.9
20260510142433 68 350 0.0 0.0 0.00 0.00 0.00 64 1009.6
20260510141929 68 336 0.0 0.9 0.00 0.00 0.00 65 1009.9
20260510141426 67 350 0.0 0.0 0.00 0.00 0.00 68 1009.4
20260510140924 67 7 0.0 0.9 0.00 0.00 0.00 66 1009.6
20260510140419 67 355 0.9 0.9 0.00 0.00 0.00 64 1009.5
20260510135918 67 357 0.0 0.0 0.00 0.00 0.00 67 1009.6
20260510135410 67 326 0.9 1.7 0.00 0.00 0.00 68 1009.5
20260510134907 67 341 0.0 0.9 0.00 0.00 0.00 68 1009.3
20260510134403 67 343 0.0 0.9 0.00 0.00 0.00 72 1009.4
20260510133900 67 3 0.0 0.0 0.00 0.00 0.00 73 1009.5
20260510133356 66 357 0.0 0.0 0.00 0.00 0.00 76 1009.6
20260510132851 65 7 0.0 0.0 0.00 0.00 0.00 77 1009.5
20260510132349 64 355 0.0 0.9 0.00 0.00 0.00 80 1009.4
20260510131846 64 2 0.0 0.0 0.00 0.00 0.00 78 1009.3
20260510131344 62 4 0.0 0.0 0.00 0.00 0.00 77 1009.4
20260510130840 61 359 0.0 0.0 0.00 0.00 0.00 84 1009.5
20260510130337 60 359 0.0 0.0 0.00 0.00 0.00 87 1009.4
20260510125834 59 359 0.0 0.0 0.00 0.00 0.00 88 1009.5
20260510125330 58 359 0.0 0.0 0.00 0.00 0.00 89 1009.5
20260510124827 57 4 0.0 0.0 0.00 0.00 0.00 90 1009.6
20260510124324 56 0 0.0 0.0 0.00 0.00 0.00 90 1009.5
20260510123820 56 14 0.0 0.0 0.00 0.00 0.00 91 1009.3
20260510123315 55 14 0.0 0.0 0.00 0.00 0.00 93 1009.1
20260510122812 54 14 0.0 0.0 0.00 0.00 0.00 98 1008.9
20260510122307 52 14 0.0 0.0 0.00 0.00 0.00 99 1008.8
20260510121804 52 14 0.0 0.0 0.00 0.00 0.00 99 1008.9
20260510121256 51 14 0.0 0.0 0.00 0.00 0.00 99 1009.0
20260510120753 50 14 0.0 0.0 0.00 0.00 0.00 99 1008.9
20260510120250 50 14 0.0 0.0 0.00 0.00 0.00 99 1008.8
20260510115746 49 14 0.0 0.0 0.00 0.00 0.00 99 1009.0
20260510115244 48 14 0.0 0.0 0.00 0.00 0.00 99 1009.0
20260510114738 47 15 0.0 0.0 0.00 0.00 0.00 99 1009.0
20260510114237 46 14 0.0 0.0 0.00 0.00 0.00 99 1009.4
20260510113731 45 18 0.0 0.0 0.00 0.00 0.00 99 1009.1
20260510113229 44 2 0.0 0.0 0.00 0.00 0.00 99 1009.1
20260510112725 43 2 0.0 0.0 0.00 0.00 0.00 99 1008.9
20260510112222 43 2 0.0 0.0 0.00 0.00 0.00 99 1009.1
20260510111717 42 1 0.0 0.0 0.00 0.00 0.00 99 1008.9
20260510111215 42 1 0.0 0.0 0.00 0.00 0.00 99 1008.7
20260510110714 42 1 0.0 0.0 0.00 0.00 0.00 99 1008.8
20260510110212 42 1 0.0 0.0 0.00 0.00 0.00 99 1008.5
20260510105706 41 2 0.0 0.0 0.00 0.00 0.00 99 1008.5
20260510105201 41 2 0.0 0.0 0.00 0.00 0.00 99 1008.6
20260510104658 41 2 0.0 0.0 0.00 0.00 0.00 99 1008.4
20260510104155 41 2 0.0 0.0 0.00 0.00 0.00 99 1008.3
20260510103652 40 1 0.0 0.0 0.00 0.00 0.00 99 1008.1
20260510103149 41 1 0.0 0.0 0.00 0.00 0.00 99 1008.0
20260510102648 40 1 0.0 0.0 0.00 0.00 0.00 99 1008.2
20260510102145 40 1 0.0 0.0 0.00 0.00 0.00 99 1007.8
20260510101642 40 4 0.0 0.0 0.00 0.00 0.00 99 1007.8
20260510101141 40 3 0.0 0.0 0.00 0.00 0.00 99 1007.8
20260510100636 40 4 0.0 0.0 0.00 0.00 0.00 99 1007.4
20260510100134 40 4 0.0 0.0 0.00 0.00 0.00 99 1007.5
20260510095629 40 5 0.0 0.0 0.00 0.00 0.00 99 1007.3
20260510095124 40 357 0.0 0.0 0.00 0.00 0.00 99 1007.5
20260510094623 40 357 0.0 0.0 0.00 0.00 0.00 99 1007.6
20260510094119 40 357 0.0 0.0 0.00 0.00 0.00 99 1007.4
20260510093616 40 12 0.0 0.0 0.00 0.00 0.00 99 1007.2
20260510093113 40 13 0.0 0.0 0.00 0.00 0.00 99 1007.2
20260510092610 40 13 0.0 0.0 0.00 0.00 0.00 99 1007.2
20260510092109 40 13 0.0 0.0 0.00 0.00 0.00 99 1007.2
20260510091606 40 13 0.0 0.0 0.00 0.00 0.00 99 1007.1
20260510091102 40 13 0.0 0.0 0.00 0.00 0.00 99 1007.2
20260510090600 40 13 0.0 0.0 0.00 0.00 0.00 99 1007.4
20260510090055 40 13 0.0 0.0 0.00 0.00 0.00 99 1007.3
20260510085550 40 13 0.0 0.0 0.00 0.00 0.00 99 1007.1
20260510085046 40 14 0.0 0.0 0.00 0.00 0.00 99 1007.1
20260510084543 40 14 0.0 0.0 0.00 0.00 0.00 99 1007.3
20260510084040 41 14 0.0 0.0 0.00 0.00 0.00 99 1007.1
20260510083536 40 13 0.0 0.0 0.00 0.00 0.00 99 1007.2
20260510083032 40 13 0.0 0.0 0.00 0.00 0.00 99 1007.3
20260510082530 41 13 0.0 0.0 0.00 0.00 0.00 99 1007.1
20260510082025 41 13 0.0 0.0 0.00 0.00 0.00 99 1007.0
20260510081520 41 13 0.0 0.0 0.00 0.00 0.00 99 1007.0
20260510081016 41 13 0.0 0.0 0.00 0.00 0.00 99 1007.0
20260510080515 41 13 0.0 0.0 0.00 0.00 0.00 99 1007.2
20260510080012 41 13 0.0 0.0 0.00 0.00 0.00 99 1007.1
20260510075510 41 13 0.0 0.0 0.00 0.00 0.00 99 1006.9
20260510075006 41 14 0.0 0.0 0.00 0.00 0.00 99 1007.0
20260510074504 41 15 0.0 0.0 0.00 0.00 0.00 99 1007.2
20260510073959 41 352 0.0 0.9 0.00 0.00 0.00 99 1006.9
20260510073455 42 352 0.0 0.0 0.00 0.00 0.00 99 1006.9
20260510072952 41 352 0.0 0.0 0.00 0.00 0.00 99 1007.0
20260510072449 41 351 0.0 0.9 0.00 0.00 0.00 99 1007.1
20260510071944 41 352 0.0 0.0 0.00 0.00 0.00 99 1006.9
20260510071441 41 353 0.0 0.0 0.00 0.00 0.00 99 1006.8
20260510070939 41 352 0.0 0.0 0.00 0.00 0.00 99 1006.9
20260510070436 41 352 0.0 0.0 0.00 0.00 0.00 99 1006.8
20260510065932 41 352 0.0 0.0 0.00 0.00 0.00 99 1006.9
20260510065429 41 352 0.0 0.0 0.00 0.00 0.00 99 1006.6
20260510064924 41 352 0.0 0.0 0.00 0.00 0.00 99 1006.7
20260510064422 41 352 0.0 0.0 0.00 0.00 0.00 99 1006.5
20260510063919 41 352 0.0 0.0 0.00 0.00 0.00 99 1006.5
20260510063415 41 352 0.0 0.0 0.00 0.00 0.00 99 1006.6
20260510062913 41 352 0.0 0.0 0.00 0.00 0.00 99 1006.7
20260510062408 41 352 0.0 0.0 0.00 0.00 0.00 99 1006.7
20260510061904 42 352 0.0 0.0 0.00 0.00 0.00 99 1006.8
20260510061400 41 352 0.0 0.0 0.00 0.00 0.00 99 1006.7
20260510060856 41 352 0.0 0.0 0.00 0.00 0.00 99 1006.9
20260510060354 42 352 0.0 0.0 0.00 0.00 0.00 99 1007.0
20260510055849 42 352 0.0 0.0 0.00 0.00 0.00 99 1007.0
20260510055349 42 351 0.0 0.0 0.00 0.00 0.00 99 1006.8
20260510054842 42 352 0.0 0.0 0.00 0.00 0.00 99 1007.1
20260510054338 42 352 0.0 0.0 0.00 0.00 0.00 99 1007.1
20260510053833 42 352 0.0 0.0 0.00 0.00 0.00 99 1007.1
20260510053329 42 352 0.0 0.0 0.00 0.00 0.00 99 1007.0
20260510052826 42 352 0.0 0.0 0.00 0.00 0.00 99 1007.1
20260510052321 42 352 0.0 0.0 0.00 0.00 0.00 99 1006.9
20260510051818 42 352 0.0 0.0 0.00 0.00 0.00 99 1007.1
20260510051315 42 352 0.0 0.0 0.00 0.00 0.00 99 1007.1
20260510050812 42 352 0.0 0.0 0.00 0.00 0.00 99 1006.9
20260510050308 42 352 0.0 0.0 0.00 0.00 0.00 99 1006.8
20260510045805 42 352 0.0 0.0 0.00 0.00 0.00 99 1006.9
20260510045305 42 352 0.0 0.0 0.00 0.00 0.00 99 1006.9
20260510044759 42 352 0.0 0.0 0.00 0.00 0.00 99 1006.9
20260510044256 43 352 0.0 0.0 0.00 0.00 0.00 99 1006.8
20260510043751 43 352 0.0 0.0 0.00 0.00 0.00 99 1006.7
20260510043243 43 352 0.0 0.0 0.00 0.00 0.00 99 1006.9
20260510042740 43 352 0.0 0.0 0.00 0.00 0.00 99 1006.9
20260510042236 42 352 0.0 0.0 0.00 0.00 0.00 99 1006.8
20260510041733 43 352 0.0 0.0 0.00 0.00 0.00 99 1006.6
20260510041230 43 352 0.0 0.0 0.00 0.00 0.00 99 1006.8
20260510040727 43 352 0.0 0.0 0.00 0.00 0.00 99 1006.6
20260510040224 43 352 0.0 0.0 0.00 0.00 0.00 99 1006.9
20260510035719 44 352 0.0 0.0 0.00 0.00 0.00 99 1006.9
20260510035215 44 352 0.0 0.0 0.00 0.00 0.00 99 1006.7
20260510034711 44 352 0.0 0.0 0.00 0.00 0.00 99 1006.9
20260510034210 44 352 0.0 0.0 0.00 0.00 0.00 99 1007.0
20260510033705 44 352 0.0 0.0 0.00 0.00 0.00 99 1007.0
20260510033204 44 352 0.0 0.0 0.00 0.00 0.00 99 1006.9
20260510032659 44 352 0.0 0.0 0.00 0.00 0.00 99 1006.9
20260510032154 44 352 0.0 0.0 0.00 0.00 0.00 99 1006.9
20260510031649 44 352 0.0 0.0 0.00 0.00 0.00 99 1006.7
20260510031147 45 352 0.0 0.0 0.00 0.00 0.00 99 1006.8
20260510030647 45 352 0.0 0.0 0.00 0.00 0.00 99 1006.8
20260510030145 45 352 0.0 0.0 0.00 0.00 0.00 99 1007.0
20260510025642 45 352 0.0 0.0 0.00 0.00 0.00 98 1006.8
20260510025139 46 352 0.0 0.0 0.00 0.00 0.00 98 1006.9
20260510024636 46 352 0.0 0.0 0.00 0.00 0.00 98 1006.8
20260510024132 46 352 0.0 0.0 0.00 0.00 0.00 98 1006.9
20260510023628 47 352 0.0 0.0 0.00 0.00 0.00 98 1006.8
20260510023125 46 352 0.0 0.0 0.00 0.00 0.00 98 1006.6
20260510022619 46 352 0.0 0.0 0.00 0.00 0.00 98 1006.8
20260510022114 47 352 0.0 0.0 0.00 0.00 0.00 98 1006.5
20260510021610 48 352 0.0 0.0 0.00 0.00 0.00 98 1006.6
20260510021108 47 352 0.0 0.0 0.00 0.00 0.00 97 1006.5
20260510020601 47 352 0.0 0.0 0.00 0.00 0.00 97 1006.4
20260510020057 48 351 0.0 0.0 0.00 0.00 0.00 97 1006.3
20260510015553 48 351 0.0 0.0 0.00 0.00 0.00 97 1006.3
20260510015049 48 351 0.0 0.0 0.00 0.00 0.00 97 1006.2
20260510014546 48 351 0.0 0.0 0.00 0.00 0.00 97 1005.9
20260510014043 48 351 0.0 0.0 0.00 0.00 0.00 96 1006.1
20260510013538 49 351 0.0 0.0 0.00 0.00 0.00 97 1005.9
20260510013034 49 351 0.0 0.0 0.00 0.00 0.00 96 1005.9
20260510012528 49 351 0.0 0.0 0.00 0.00 0.00 96 1005.9
20260510012024 49 351 0.0 0.0 0.00 0.00 0.00 95 1005.6
20260510011519 50 351 0.0 0.0 0.00 0.00 0.00 95 1005.5
20260510011014 50 351 0.0 0.0 0.00 0.00 0.00 95 1005.4
20260510010512 50 354 0.0 0.0 0.00 0.00 0.00 94 1005.2
20260510010009 50 354 0.0 0.0 0.00 0.00 0.00 93 1005.4
20260510005504 51 354 0.0 0.0 0.00 0.00 0.00 93 1005.3
20260510005002 51 354 0.0 0.0 0.00 0.00 0.00 92 1005.2
20260510004459 52 354 0.0 0.0 0.00 0.00 0.00 92 1005.2
20260510003957 52 354 0.0 0.0 0.00 0.00 0.00 91 1005.1
20260510003454 53 354 0.0 0.0 0.00 0.00 0.00 90 1005.1
20260510002949 54 354 0.0 0.0 0.00 0.00 0.00 89 1004.8
20260510002445 54 353 0.0 0.0 0.00 0.00 0.00 89 1004.8
20260510001942 54 353 0.0 0.0 0.00 0.00 0.00 89 1004.8
20260510001439 55 353 0.0 0.0 0.00 0.00 0.00 88 1004.8
20260510000937 55 352 0.0 0.0 0.00 0.00 0.00 87 1004.5
20260510000433 56 353 0.0 0.0 0.00 0.00 0.00 86 1004.5
20260509235929 57 352 0.0 0.0 0.00 0.00 0.00 84 1004.5
20260509235426 58 352 0.0 0.0 0.00 0.00 0.00 82 1004.7
20260509234922 59 352 0.0 0.0 0.00 0.00 0.00 81 1004.4
20260509234419 59 352 0.0 0.0 0.00 0.00 0.00 80 1004.7
20260509233917 60 352 0.0 0.0 0.00 0.00 0.00 78 1004.8
20260509233415 61 352 0.0 0.0 0.00 0.00 0.00 78 1004.5
20260509232911 62 352 0.0 0.0 0.00 0.00 0.00 77 1004.4
20260509232409 63 352 0.0 0.0 0.00 0.00 0.00 75 1004.5
20260509231904 65 352 0.0 0.0 0.00 0.00 0.00 71 1004.7
20260509231401 66 350 0.0 0.0 0.00 0.00 0.00 61 1004.7
20260509230859 67 4 0.0 0.0 0.00 0.00 0.00 58 1004.5
20260509230356 67 354 0.0 0.0 0.00 0.00 0.00 53 1004.7
20260509225851 67 354 0.0 0.0 0.00 0.00 0.00 58 1004.5
20260509225348 68 336 0.0 0.0 0.00 0.00 0.00 56 1004.4
20260509224844 68 0 0.0 0.0 0.00 0.00 0.00 52 1004.8
20260509224340 69 346 0.0 0.9 0.00 0.00 0.00 51 1004.7
20260509223837 69 0 0.9 0.9 0.00 0.00 0.00 52 1004.7
20260509223334 69 345 0.0 0.0 0.00 0.00 0.00 50 1004.9
20260509222831 69 352 0.0 0.0 0.00 0.00 0.00 52 1004.7
20260509222326 69 333 0.9 0.9 0.00 0.00 0.00 50 1004.8
20260509221822 69 25 0.0 0.9 0.00 0.00 0.00 56 1004.5
20260509221320 69 305 0.9 0.9 0.00 0.00 0.00 57 1004.9
20260509220819 69 318 0.9 0.9 0.00 0.00 0.00 60 1004.7
20260509220316 68 19 0.0 0.9 0.00 0.00 0.00 60 1004.7
20260509215811 68 3 0.0 0.0 0.00 0.00 0.00 59 1004.9
20260509215308 68 351 0.0 0.9 0.00 0.00 0.00 60 1004.7
20260509214805 67 16 0.0 0.0 0.00 0.00 0.00 61 1004.7
20260509214302 67 303 2.6 2.6 0.00 0.00 0.00 63 1004.7
20260509213759 67 359 0.0 0.0 0.00 0.00 0.00 62 1004.7
20260509213255 68 354 0.9 0.9 0.00 0.00 0.00 62 1004.8
20260509212752 68 345 0.9 0.9 0.00 0.00 0.00 60 1004.5
20260509212250 67 346 0.0 0.9 0.00 0.00 0.00 62 1004.5
20260509211745 68 307 0.9 1.7 0.00 0.00 0.00 62 1004.5
20260509211242 68 355 0.9 0.9 0.00 0.00 0.00 58 1004.5
20260509210738 68 0 0.0 0.0 0.00 0.00 0.00 55 1004.4
20260509210237 68 351 0.9 0.9 0.00 0.00 0.00 55 1004.2
20260509205735 68 11 0.9 0.9 0.00 0.00 0.00 55 1004.3